Wetbulb
74.37 76.20 77.41 77.16 77.16 76.66 75.22 74.95 74.42 73.84 73.26 73.11 73.67 73.95 73.54 73.29 73.28 72.62 72.73 72.99 73.48 73.15 73.32 73.01 72.44 72.07 72.23 72.50 72.12 71.60 71.18 70.75 70.84 70.86 71.13 70.74 70.52 70.08 69.28 68.75 68.19 66.22 68.34
74.39 75.96 77.19 77.16 77.29 76.25 75.04 75.00 74.45 73.82 73.42 73.08 73.24 73.39 72.83 73.31 73.05 73.08 72.94 73.11 73.05 72.69 72.24 71.79 71.74 71.54 71.72 72.31 72.27 72.09 71.75 71.44 70.97 70.53 70.37 70.39 70.34 69.74 68.96 68.69 68.50 67.55 68.73
74.70 75.74 75.95 77.21 77.44 75.88 75.20 75.03 74.45 73.75 73.48 73.47 73.14 72.96 73.11 73.54 73.54 73.48 73.84 74.18 73.14 72.89 72.73 72.82 72.86 72.49 71.81 71.22 70.98 71.38 71.61 71.25 71.21 71.16 69.33 66.22 66.37 69.19 68.65 68.19 67.87 68.41 68.27
74.85 75.07 75.42 77.36 77.21 76.00 75.38 75.10 74.70 73.83 73.55 73.60 73.65 73.67 73.90 73.97 73.89 73.71 73.96 73.72 73.47 73.36 73.11 72.74 72.45 71.93 71.11 70.98 70.86 70.29 70.00 70.20 70.82 70.83 67.95 67.06 67.27 69.80 69.55 68.86 68.24 67.85 67.61
73.70 74.51 75.57 77.45 77.05 76.38 75.38 75.13 74.88 74.28 73.90 73.68 73.79 73.87 74.02 74.00 74.27 74.70 74.57 74.18 73.54 73.14 72.63 71.90 71.28 71.08 71.21 71.10 71.04 70.81 70.94 71.18 71.27 71.10 67.39 64.72 65.58 68.96 69.41 69.38 68.55 67.65 67.03
73.16 73.98 76.70 77.17 76.90 76.45 75.38 75.13 74.85 74.40 74.23 73.92 73.97 74.10 73.97 74.07 74.05 74.60 74.47 74.25 73.22 72.61 72.15 71.75 71.15 71.08 71.42 71.62 72.29 72.77 71.56 71.22 71.39 66.05 66.77 65.52 65.76 70.13 69.87 68.74 67.96 67.62 67.55
73.34 74.13 75.09 76.94 76.90 76.20 75.40 75.15 75.13 74.85 74.63 74.48 73.90 73.95 73.95 73.98 73.98 74.25 74.00 73.18 72.67 72.23 72.00 71.48 70.95 70.95 71.52 72.20 72.60 73.26 73.53 72.66 68.94 65.80 65.15 66.21 65.51 71.18 69.66 68.73 68.53 67.94 67.58
73.53 74.13 74.73 76.40 76.75 76.17 75.90 75.70 75.64 75.59 75.22 74.60 74.30 74.05 73.75 73.88 73.80 73.68 73.88 73.57 73.02 72.53 71.87 71.52 71.60 72.20 72.69 73.18 73.56 73.95 73.98 73.46 70.88 68.30 65.40 64.51 67.67 70.73 69.95 69.27 68.70 68.14 67.55
74.02 74.01 74.14 74.72 75.26 76.07 76.01 76.00 75.83 75.87 75.63 75.38 75.03 74.72 74.30 73.66 73.85 74.00 74.13 73.98 73.60 73.43 73.38 73.05 73.20 73.38 73.63 73.78 73.78 73.80 73.70 73.19 69.55 69.94 66.97 65.37 70.44 70.84 70.61 69.87 69.17 68.71 68.22
73.13 73.47 73.42 73.49 73.04 73.35 74.16 75.62 75.71 75.63 75.75 75.52 75.22 74.93 74.80 74.40 74.32 74.37 73.86 74.25 74.13 74.08 74.20 74.45 74.27 74.42 74.21 74.09 74.11 74.17 73.98 73.79 69.60 69.39 69.70 66.54 71.40 71.68 71.39 70.62 69.86 69.18 68.69
71.34 72.33 72.94 72.72 72.66 72.84 73.12 74.17 75.48 75.40 75.17 75.26 74.96 75.08 74.44 72.47 72.84 73.62 74.08 74.29 74.72 74.90 74.94 75.02 74.87 74.61 74.73 74.68 74.93 75.03 74.95 71.86 69.56 69.48 70.67 69.49 72.04 72.44 72.20 71.06 70.40 69.82 69.31
68.31 69.96 71.97 72.30 72.42 72.65 73.61 72.45 72.51 72.64 72.93 73.44 73.39 72.96 72.27 71.43 70.71 73.00 73.81 74.84 75.17 75.39 75.24 74.94 74.94 74.99 75.06 72.86 72.42 73.28 71.94 72.25 70.42 69.56 69.67 72.94 73.06 73.03 72.92 71.90 71.14 70.56 69.97
67.25 68.70 70.29 71.30 71.90 71.93 72.17 72.47 72.00 71.63 71.95 72.27 71.99 71.57 71.34 71.49 70.26 71.66 71.14 72.41 72.76 74.60 73.00 73.41 73.04 73.10 72.51 71.98 71.81 71.03 70.30 71.30 71.00 70.01 70.44 73.93 74.20 73.54 73.77 72.92 71.74 71.08 70.56
66.84 67.70 69.10 69.82 70.19 70.68 71.28 71.93 71.32 71.12 70.98 70.62 70.68 69.96 69.90 68.74 68.20 68.16 70.27 70.68 71.15 71.74 71.73 71.78 70.59 70.68 70.60 71.30 70.83 69.80 69.39 70.34 70.29 70.43 71.35 72.96 74.54 74.25 74.99 74.34 72.61 71.77 71.15
66.97 67.78 68.48 68.83 68.70 69.22 70.44 70.09 69.78 69.85 70.27 69.88 69.30 69.56 70.13 68.38 67.39 67.15 67.85 70.35 70.61 70.64 70.62 69.97 69.43 68.05 69.09 70.06 70.49 70.39 68.30 69.08 68.73 68.92 68.29 71.58 73.66 74.13 74.78 74.67 73.84 72.68 71.97
67.51 67.63 68.62 68.31 68.09 68.25 69.58 67.94 68.31 68.75 68.76 67.62 67.86 68.70 69.92 69.38 68.47 67.37 66.31 67.57 69.15 69.38 69.60 68.98 68.30 68.27 68.41 69.61 70.92 70.57 69.65 69.56 69.83 69.11 69.57 68.45 72.72 73.92 73.87 74.32 74.59 73.85 72.96
66.32 67.76 68.00 68.12 68.83 68.63 68.87 68.06 67.82 68.15 68.21 67.01 67.75 67.69 69.00 69.34 67.67 66.93 67.29 66.15 66.24 66.55 66.43 66.04 67.05 66.80 67.25 68.80 68.91 69.24 69.50 69.58 69.74 70.31 68.71 70.74 69.95 71.03 71.54 72.23 72.92 73.23 73.93
67.99 68.06 68.25 69.94 70.25 69.49 70.00 71.03 71.05 69.82 68.97 69.03 68.78 68.29 68.73 69.03 68.86 68.38 67.38 66.80 66.98 66.76 66.60 65.49 64.76 64.70 66.03 67.21 66.40 66.45 66.14 66.92 67.45 66.87 66.87 68.65 68.43 71.08 70.60 69.73 68.49 70.30 73.06
69.73 70.27 70.02 70.30 70.10 69.75 70.24 72.14 71.38 71.66 71.03 70.73 70.11 70.05 70.15 69.71 70.18 68.69 69.00 68.49 68.37 68.51 68.07 68.27 67.30 66.49 65.72 64.55 64.90 63.95 66.04 65.92 66.20 67.21 67.01 65.89 66.59 67.10 67.39 67.13 67.06 68.34 69.30
70.90 71.32 71.38 71.88 72.09 72.46 72.48 72.12 71.65 70.98 70.60 69.42 69.15 69.56 71.52 72.00 72.11 71.35 69.65 68.63 68.72 67.37 65.65 64.86 64.92 64.74 63.92 62.63 66.92 65.32 63.60 64.55 63.83 63.80 64.20 65.38 65.89 65.29 65.52 65.96 65.24 67.66 69.71
69.16 70.24 70.47 70.41 70.30 71.40 71.66 71.93 71.80 69.31 68.13 68.38 68.31 67.40 67.68 68.49 68.57 68.90 69.08 68.85 66.90 65.29 64.53 63.89 63.08 62.36 62.52 62.34 60.94 60.52 60.82 62.24 61.86 63.94 63.28 63.14 64.22 65.30 64.98 65.40 65.66 66.94 67.69
67.12 67.80 68.61 68.87 68.98 69.71 70.65 70.69 70.53 68.11 68.16 67.12 66.54 66.54 66.31 66.89 67.66 66.90 66.81 66.49 67.18 65.54 64.66 63.90 62.31 60.51 60.65 61.54 58.98 56.82 55.20 57.17 58.71 61.91 62.34 62.00 62.01 64.36 65.54 67.34 66.41 66.23 69.21
65.15 66.11 66.72 67.17 67.35 68.51 69.93 70.23 69.51 68.65 66.78 65.70 65.45 64.76 65.92 66.07 66.19 65.12 64.89 64.94 64.12 63.72 63.43 63.81 64.45 62.66 61.20 61.28 61.80 57.75 54.42 52.64 55.48 58.87 61.47 61.80 62.35 62.91 64.85 65.89 65.79 65.14 66.01
65.03 66.00 65.60 65.89 66.12 67.48 68.40 67.48 67.04 65.61 64.73 64.90 64.55 64.21 63.66 65.23 65.01 64.94 63.63 62.59 62.35 61.53 60.07 61.60 62.52 62.90 62.18 62.62 63.45 62.08 60.60 60.67 57.91 57.14 58.15 60.46 64.12 63.75 63.32 64.08 64.93 64.97 65.42
64.79 63.62 63.15 63.80 64.25 64.79 65.37 66.27 65.86 65.01 65.66 65.47 63.17 60.91 59.40 60.47 61.19 60.96 60.06 57.83 56.76 57.18 58.81 58.51 58.35 57.79 60.13 61.94 62.26 61.56 61.66 60.62 60.42 59.42 57.92 58.06 61.43 63.74 65.07 64.55 63.68 63.93 65.21
61.88 60.77 60.13 60.33 60.78 62.31 62.52 61.23 61.51 60.52 59.41 61.85 60.21 58.85 57.71 56.44 56.23 56.20 56.19 55.72 54.97 54.22 55.56 55.90 56.36 56.39 56.78 57.32 58.14 60.56 60.33 60.34 59.74 59.42 58.51 58.58 59.39 62.05 63.09 64.00 62.72 63.36 64.40
MSLP
1014.64 1014.65 1014.39 1014.51 1014.81 1015.06 1015.29 1015.50 1015.62 1015.74 1015.86 1015.93 1015.97 1015.95 1016.03 1016.09 1016.17 1016.28 1016.38 1016.51 1016.53 1016.52 1016.65 1016.76 1016.85 1016.93 1017.02 1017.19 1017.30 1017.23 1017.15 1017.21 1017.08 1017.05 1017.17 1017.14 1016.95 1017.08 1017.21 1017.33 1017.41 1017.40 1017.30
1013.85 1014.62 1014.68 1014.72 1014.92 1015.27 1015.51 1015.62 1015.77 1015.95 1016.04 1016.10 1016.18 1016.26 1016.38 1016.45 1016.54 1016.60 1016.68 1016.78 1016.82 1016.84 1016.87 1016.96 1017.00 1017.01 1017.13 1017.26 1017.42 1017.36 1017.39 1017.42 1017.44 1017.33 1017.32 1017.30 1017.28 1017.32 1017.41 1017.49 1017.55 1017.51 1017.45
1014.01 1014.12 1014.52 1014.80 1015.05 1015.29 1015.61 1015.81 1015.94 1016.12 1016.23 1016.28 1016.39 1016.48 1016.56 1016.59 1016.68 1016.74 1016.75 1016.80 1016.90 1017.03 1017.11 1017.11 1017.11 1017.16 1017.24 1017.32 1017.55 1017.73 1017.69 1017.69 1017.61 1017.55 1017.69 1017.68 1017.57 1017.48 1017.53 1017.62 1017.74 1017.74 1017.74
1013.36 1014.00 1014.32 1014.51 1014.92 1015.23 1015.49 1015.77 1016.07 1016.24 1016.29 1016.38 1016.52 1016.63 1016.70 1016.68 1016.70 1016.87 1016.98 1017.06 1017.18 1017.28 1017.32 1017.33 1017.30 1017.45 1017.53 1017.58 1017.63 1017.74 1017.79 1017.77 1017.69 1017.65 1017.89 1017.82 1017.69 1017.76 1017.79 1017.82 1017.87 1017.93 1018.00
1013.82 1014.16 1014.44 1014.58 1015.01 1015.30 1015.51 1015.86 1016.05 1016.27 1016.44 1016.49 1016.59 1016.69 1016.75 1016.74 1016.85 1017.06 1017.25 1017.30 1017.34 1017.45 1017.52 1017.60 1017.61 1017.63 1017.63 1017.65 1017.78 1017.88 1017.93 1017.77 1017.73 1017.65 1017.76 1017.99 1017.97 1017.81 1017.83 1017.88 1017.86 1017.95 1018.09
1014.04 1014.36 1014.78 1015.10 1015.33 1015.54 1015.83 1015.96 1016.16 1016.29 1016.42 1016.62 1016.72 1016.77 1016.86 1016.90 1017.04 1017.20 1017.36 1017.44 1017.53 1017.65 1017.73 1017.77 1017.74 1017.65 1017.63 1017.70 1017.86 1017.95 1018.00 1017.89 1017.61 1017.61 1017.64 1018.09 1018.12 1017.73 1017.71 1017.81 1017.84 1018.02 1018.07
1014.32 1014.65 1014.94 1015.21 1015.57 1015.80 1016.03 1016.31 1016.43 1016.46 1016.62 1016.66 1016.78 1016.88 1016.94 1017.09 1017.30 1017.37 1017.50 1017.57 1017.64 1017.79 1017.82 1017.86 1017.89 1017.82 1017.79 1017.79 1017.83 1017.83 1017.91 1017.91 1017.74 1017.72 1017.64 1017.94 1018.31 1017.91 1017.84 1017.91 1017.96 1018.18 1018.26
1014.20 1014.60 1015.00 1015.31 1015.63 1015.95 1016.15 1016.36 1016.51 1016.65 1016.79 1016.84 1016.87 1016.94 1017.09 1017.30 1017.49 1017.56 1017.65 1017.70 1017.83 1017.93 1017.93 1017.89 1017.93 1017.96 1017.90 1017.74 1017.76 1017.71 1017.74 1017.87 1017.71 1017.61 1017.63 1017.83 1018.08 1018.00 1017.82 1017.90 1018.06 1018.18 1018.30
1014.37 1014.84 1015.29 1015.59 1015.83 1016.03 1016.30 1016.43 1016.51 1016.60 1016.76 1016.86 1016.94 1017.08 1017.23 1017.45 1017.67 1017.69 1017.78 1017.84 1017.88 1017.90 1017.94 1017.81 1017.85 1017.91 1017.74 1017.60 1017.52 1017.52 1017.47 1017.69 1017.82 1017.78 1017.67 1017.78 1017.68 1017.79 1017.77 1017.87 1017.99 1018.12 1018.21
1014.50 1014.68 1015.06 1015.53 1015.87 1016.06 1016.27 1016.39 1016.43 1016.56 1016.69 1016.87 1016.99 1017.12 1017.27 1017.40 1017.55 1017.59 1017.70 1017.76 1017.78 1017.78 1017.72 1017.62 1017.67 1017.67 1017.51 1017.40 1017.39 1017.28 1017.28 1017.33 1017.51 1017.64 1017.60 1017.45 1017.43 1017.45 1017.57 1017.76 1017.85 1017.94 1018.00
1014.92 1014.94 1014.88 1015.13 1015.61 1015.97 1016.21 1016.28 1016.35 1016.45 1016.59 1016.77 1016.93 1017.07 1017.24 1017.32 1017.40 1017.50 1017.54 1017.56 1017.50 1017.46 1017.40 1017.31 1017.42 1017.40 1017.24 1017.24 1017.19 1017.32 1017.26 1017.10 1017.07 1017.20 1017.03 1017.39 1017.32 1017.27 1017.35 1017.55 1017.63 1017.82 1017.81
1014.75 1014.90 1015.03 1014.97 1015.17 1015.63 1015.86 1016.15 1016.25 1016.32 1016.41 1016.50 1016.66 1016.83 1017.02 1017.13 1017.25 1017.26 1017.32 1017.33 1017.27 1017.20 1017.26 1017.13 1017.19 1017.09 1016.92 1017.06 1017.15 1017.00 1016.86 1016.91 1016.88 1016.75 1016.38 1016.52 1016.77 1017.00 1017.04 1017.09 1017.31 1017.55 1017.73
1014.17 1014.47 1014.75 1014.92 1014.74 1014.90 1015.28 1015.83 1016.10 1016.20 1016.30 1016.35 1016.39 1016.55 1016.74 1016.88 1017.03 1017.05 1017.11 1017.14 1017.15 1017.12 1017.04 1016.86 1016.99 1016.97 1016.92 1017.20 1016.94 1016.57 1016.35 1016.30 1016.31 1016.24 1016.12 1016.38 1016.50 1016.66 1016.68 1016.51 1016.54 1017.08 1017.39
1013.08 1013.65 1014.10 1014.29 1014.62 1014.59 1014.73 1015.46 1015.71 1015.98 1016.13 1016.18 1016.14 1016.25 1016.57 1016.78 1016.89 1016.91 1016.81 1016.75 1016.87 1016.90 1016.85 1016.83 1016.88 1016.76 1017.02 1016.98 1016.85 1016.33 1015.79 1016.34 1016.18 1015.93 1015.66 1015.50 1015.87 1016.23 1016.01 1016.26 1016.57 1016.77 1017.13
1012.27 1012.89 1013.70 1013.71 1014.10 1014.19 1014.49 1014.96 1015.38 1015.52 1015.63 1015.66 1015.82 1015.93 1016.26 1016.52 1016.61 1016.53 1016.56 1016.54 1016.54 1016.65 1016.65 1016.62 1016.52 1016.44 1016.54 1016.22 1016.20 1015.76 1016.20 1016.02 1015.82 1015.72 1015.20 1014.82 1014.42 1014.67 1015.25 1015.72 1016.01 1016.27 1016.46
1011.75 1012.06 1012.94 1013.31 1013.67 1013.84 1014.09 1014.35 1014.70 1014.99 1015.19 1015.43 1015.48 1015.55 1015.78 1015.90 1016.13 1016.28 1016.33 1016.38 1016.42 1016.51 1016.38 1016.14 1016.06 1016.05 1016.21 1015.84 1015.55 1015.87 1016.06 1015.95 1015.61 1015.58 1015.56 1015.18 1014.77 1014.56 1014.74 1015.05 1015.66 1016.06 1015.80
1011.53 1011.30 1012.24 1012.87 1013.56 1013.70 1013.81 1013.90 1014.18 1014.45 1014.77 1014.97 1014.99 1015.16 1015.40 1015.73 1015.91 1016.03 1016.17 1016.36 1016.29 1016.28 1016.13 1016.04 1015.82 1015.83 1016.07 1015.73 1015.76 1015.59 1015.62 1015.78 1015.58 1015.90 1015.55 1015.20 1014.95 1014.80 1014.53 1015.23 1015.73 1016.13 1015.82
1011.32 1011.58 1011.99 1012.72 1013.35 1013.54 1013.75 1013.70 1013.80 1014.04 1014.22 1014.38 1014.56 1014.82 1015.33 1015.38 1015.29 1015.66 1015.91 1015.79 1015.69 1015.76 1015.74 1015.99 1016.07 1016.10 1016.51 1016.43 1016.37 1016.25 1016.11 1016.07 1015.82 1015.80 1015.84 1015.62 1015.12 1013.90 1014.12 1014.36 1014.82 1015.92 1015.23
1011.34 1011.69 1012.21 1012.70 1013.23 1013.56 1013.68 1013.50 1013.43 1013.61 1013.98 1014.22 1014.61 1014.90 1014.94 1015.06 1015.31 1015.76 1015.93 1016.24 1015.95 1016.01 1016.27 1016.55 1016.53 1016.61 1016.86 1016.88 1016.70 1016.41 1016.23 1016.08 1016.16 1015.99 1015.82 1015.96 1015.36 1014.48 1014.27 1013.96 1014.08 1013.04 1014.10
1012.28 1012.25 1012.49 1012.81 1013.10 1013.32 1013.28 1013.41 1013.57 1013.62 1014.13 1014.42 1014.79 1015.36 1015.00 1015.17 1015.33 1015.58 1016.49 1016.59 1016.28 1016.38 1016.57 1016.71 1016.81 1016.94 1017.13 1017.13 1016.67 1016.27 1016.39 1016.32 1016.19 1016.07 1015.76 1015.57 1014.97 1014.39 1013.88 1013.95 1013.37 1012.33 1013.10
1012.60 1012.82 1012.86 1012.97 1013.22 1013.21 1013.49 1013.75 1014.01 1014.66 1015.25 1015.46 1015.63 1015.69 1015.62 1015.89 1016.10 1016.53 1016.80 1016.76 1016.67 1017.00 1016.90 1016.92 1017.03 1017.28 1017.28 1017.06 1016.79 1016.37 1016.04 1015.76 1015.83 1015.75 1015.49 1015.27 1014.90 1014.40 1013.85 1012.74 1012.87 1013.14 1013.03
1012.56 1012.84 1013.19 1013.31 1013.46 1013.44 1013.57 1013.65 1014.28 1015.22 1015.89 1016.17 1016.35 1016.47 1016.58 1016.66 1016.84 1017.01 1017.05 1017.00 1017.25 1017.28 1017.12 1017.13 1017.43 1017.61 1017.65 1017.46 1017.53 1017.43 1016.85 1016.07 1015.86 1015.63 1015.49 1015.34 1014.74 1014.37 1014.14 1013.83 1012.81 1013.08 1013.26
1012.85 1013.04 1013.23 1013.57 1013.77 1013.71 1013.76 1014.00 1014.92 1015.38 1016.07 1016.49 1016.84 1017.04 1017.19 1017.07 1017.41 1017.38 1017.45 1017.73 1017.58 1017.50 1017.59 1017.64 1017.68 1017.76 1017.91 1017.75 1017.46 1017.62 1017.40 1017.04 1016.56 1015.80 1015.28 1015.09 1014.42 1014.23 1013.95 1013.41 1012.89 1012.29 1012.33
1012.90 1013.32 1013.35 1013.45 1013.74 1013.95 1013.91 1014.49 1014.93 1015.67 1016.30 1016.97 1017.34 1017.52 1017.61 1017.53 1017.76 1017.32 1017.70 1017.44 1017.48 1017.65 1017.91 1018.12 1018.07 1018.02 1017.95 1017.78 1017.49 1017.46 1017.37 1017.19 1016.80 1015.97 1015.49 1014.87 1014.25 1014.02 1013.79 1013.10 1012.38 1012.34 1011.89
1013.07 1013.72 1013.94 1013.84 1013.98 1014.18 1014.44 1014.90 1015.23 1015.92 1016.48 1017.28 1017.83 1017.90 1017.94 1017.95 1017.74 1017.69 1017.75 1017.73 1018.13 1018.15 1018.32 1018.43 1018.44 1018.33 1018.14 1018.00 1017.89 1017.57 1017.20 1016.90 1016.72 1016.57 1015.63 1014.85 1014.23 1013.24 1012.94 1012.40 1012.49 1012.32 1011.78
1013.46 1013.78 1014.31 1014.59 1014.87 1014.81 1015.09 1015.51 1015.84 1016.42 1016.96 1017.59 1017.97 1018.29 1018.50 1018.44 1018.41 1018.34 1018.29 1018.33 1018.44 1018.54 1018.66 1018.67 1018.64 1018.61 1018.51 1018.27 1018.12 1017.92 1017.81 1017.44 1016.94 1016.52 1015.89 1015.04 1014.33 1013.24 1012.52 1012.53 1012.56 1012.48 1011.76
Wind_Speed
10 10 17 18 16 16 16 15 15 15 14 15 15 16 17 16 16 17 18 16 15 16 15 14 13 13 13 13 14 14 14 14 14 13 12 13 15 15 13 14 13 9 12
18 11 16 17 17 16 16 16 15 15 15 15 16 17 17 16 17 17 16 15 14 15 14 13 12 13 12 13 12 12 12 12 12 12 12 12 13 13 13 12 11 8 12
15 14 15 18 17 17 16 15 15 15 15 15 16 16 16 16 16 15 14 13 14 14 12 11 10 11 11 11 10 9 9 8 9 13 9 3 4 12 11 11 10 10 11
17 13 14 19 18 18 18 16 15 15 15 16 15 15 15 15 15 14 12 13 12 11 10 8 7 7 7 6 7 6 6 5 5 4 4 3 6 11 10 11 10 10 9
13 11 13 18 17 17 18 17 16 15 15 15 15 15 14 13 12 11 10 10 11 9 8 7 5 4 4 3 2 2 2 3 5 6 5 4 3 9 10 10 9 10 10
12 10 15 16 16 16 17 17 16 16 15 15 14 14 13 12 11 10 9 9 9 8 7 5 3 2 2 2 3 4 2 3 4 4 6 6 4 10 12 10 10 10 10
12 9 12 16 15 15 16 16 15 15 14 14 14 13 12 12 10 9 9 8 8 7 6 4 3 1 4 6 7 6 6 7 4 3 5 5 4 11 11 11 10 10 9
16 11 10 15 14 14 15 15 14 12 12 12 12 12 11 10 9 8 7 7 6 6 5 4 3 4 5 6 8 8 7 7 6 4 5 5 8 10 11 11 10 10 10
13 11 7 8 11 14 13 13 14 13 12 11 11 10 9 9 8 7 6 6 6 6 6 5 6 6 7 8 8 9 9 6 2 3 4 4 13 13 12 12 12 11 11
13 12 11 8 6 6 7 14 14 13 12 11 10 10 9 9 9 9 8 8 8 8 8 8 8 9 10 9 10 10 11 11 3 3 4 5 15 15 14 13 13 13 12
9 11 12 12 9 7 6 9 12 15 13 12 11 11 8 4 5 7 8 11 11 12 12 11 11 11 12 11 12 11 13 3 4 3 3 7 15 16 15 14 14 14 14
12 11 10 12 12 10 8 6 6 7 5 6 6 6 5 5 5 7 9 13 14 14 12 13 12 13 12 4 3 8 3 5 4 4 4 12 17 18 17 16 16 15 15
12 12 13 12 13 13 10 6 4 3 4 5 7 6 5 5 4 4 3 4 6 11 5 8 6 6 7 2 4 5 5 5 3 3 5 9 15 18 18 19 19 17 17
17 15 15 14 12 12 7 7 6 5 5 5 6 7 5 3 4 4 4 6 5 4 6 5 4 5 5 5 6 8 7 1 3 3 5 7 15 18 20 19 18 18 18
16 15 15 15 13 12 9 8 6 7 7 7 6 6 5 4 5 4 5 4 5 4 6 5 6 5 5 7 7 10 3 3 5 4 2 8 12 19 21 18 18 20 20
14 16 15 14 12 11 11 11 8 7 6 5 4 6 9 6 5 4 4 4 4 4 5 5 5 6 5 6 8 3 5 6 6 4 2 5 11 11 11 11 17 21 22
8 10 15 14 11 12 12 10 7 7 6 5 6 7 8 7 6 5 4 4 4 4 6 5 5 4 2 3 3 2 4 2 5 2 3 3 2 6 7 8 17 26 23
7 9 8 11 11 9 10 8 7 7 5 6 6 5 7 7 7 4 3 3 3 3 3 3 2 2 4 3 2 0 1 2 5 3 3 3 4 3 3 9 4 20 24
8 8 9 7 7 7 6 5 5 7 5 5 2 1 3 4 2 3 3 4 5 4 6 4 4 4 4 3 1 3 4 4 2 2 5 3 4 2 3 2 7 11 16
8 8 8 6 4 6 4 3 1 1 6 7 6 6 5 5 4 4 4 5 4 4 4 3 4 4 3 2 3 4 4 4 4 4 4 3 5 5 5 5 5 6 14
8 10 7 9 6 4 2 2 1 4 4 6 9 11 11 10 8 6 4 5 5 5 4 4 3 5 4 4 2 3 3 4 5 2 4 4 6 5 6 6 1 5 5
7 8 7 8 6 4 2 3 5 5 6 7 6 9 8 8 7 6 5 6 5 3 6 6 5 3 3 4 2 1 4 5 4 4 4 4 8 3 4 5 6 7 6
7 7 8 7 7 5 6 9 8 6 4 4 5 5 6 8 8 8 7 4 5 5 5 5 4 3 2 2 1 1 3 3 3 3 5 4 6 3 1 3 2 5 6
8 6 7 7 7 6 8 6 8 6 8 3 4 5 5 5 5 8 5 6 7 4 6 4 4 3 2 3 2 1 4 3 3 5 3 4 4 4 5 4 1 3 4
9 7 6 7 8 7 8 9 8 8 7 7 6 8 6 5 7 7 7 7 6 5 5 6 5 5 3 3 2 2 3 3 3 4 6 5 4 5 3 2 4 4 3
9 8 7 8 6 7 9 8 8 9 7 9 8 6 4 4 4 6 6 6 5 5 5 5 5 6 5 4 3 3 2 3 3 3 3 5 4 4 3 3 3 6 3
Wind_Direction
160 159 142 136 131 126 123 120 114 109 107 106 105 101 101 102 102 104 104 103 102 103 101 98 97 94 93 88 85 88 92 96 101 101 97 87 113 93 97 103 100 100 91
147 153 142 135 132 131 128 124 118 115 112 110 109 107 105 104 105 106 107 108 106 104 104 101 99 95 93 94 96 100 102 104 101 98 100 99 101 102 106 107 102 96 100
147 148 145 140 138 134 132 128 124 120 117 113 112 112 114 113 113 114 116 114 109 106 103 101 95 86 94 100 103 103 109 120 130 81 104 99 108 112 110 110 110 107 97
143 147 148 145 143 142 140 136 130 127 125 122 121 121 121 120 121 122 117 112 110 108 107 105 97 86 84 96 111 122 131 157 198 240 143 186 129 123 119 117 115 112 106
136 142 152 146 146 147 144 141 136 134 133 132 131 131 130 127 125 119 116 116 115 116 111 100 82 63 66 66 80 115 153 212 249 259 198 173 162 142 134 125 139 118 115
135 139 148 147 149 148 146 144 142 140 139 139 139 138 137 133 129 126 126 125 127 125 122 118 106 36 357 355 1 3 7 351 339 2 133 175 200 162 163 145 135 132 126
133 142 149 151 153 150 149 148 147 144 143 145 148 150 149 146 143 139 140 144 144 145 151 154 166 246 316 331 340 343 350 351 348 302 159 160 218 168 155 152 145 142 137
144 147 156 157 155 154 153 153 150 149 152 153 156 160 159 157 153 153 159 162 162 172 183 191 230 268 293 307 314 318 330 350 347 343 154 169 202 186 168 162 161 156 152
144 143 146 154 161 157 156 156 156 159 163 165 165 166 165 166 167 174 183 183 192 203 218 223 240 262 270 277 285 297 303 319 327 329 196 192 193 193 183 179 176 170 165
152 155 153 150 149 150 162 166 166 169 171 174 174 177 178 178 184 192 197 204 213 220 230 234 239 247 258 261 267 269 284 289 221 275 269 203 196 198 194 191 190 185 179
160 165 160 156 154 155 161 178 176 179 182 184 186 191 190 189 201 206 208 216 221 226 230 237 240 247 253 261 267 275 276 260 245 220 222 227 208 205 201 199 200 200 192
172 176 172 167 165 162 176 183 183 189 186 185 189 197 193 199 203 213 222 227 231 230 237 246 249 251 256 253 274 279 252 244 231 248 238 220 210 210 207 203 207 208 206
180 174 182 179 173 172 179 178 187 196 191 197 202 200 207 206 213 217 220 230 232 237 239 246 252 255 261 240 245 255 251 225 236 238 269 237 212 211 215 210 206 210 213
181 190 181 182 185 183 167 177 186 189 198 206 211 205 202 209 218 219 223 224 213 219 229 240 252 245 250 236 239 267 262 51 232 233 251 256 215 219 217 219 216 214 217
170 181 193 183 187 186 164 175 186 200 203 207 203 208 203 201 213 215 231 220 209 201 224 232 242 246 234 236 216 233 78 173 191 220 213 264 228 204 222 221 218 219 218
173 183 182 191 190 187 176 181 189 196 207 202 197 212 213 214 217 215 226 225 222 212 235 238 234 244 237 251 248 84 182 216 242 271 82 322 308 233 233 243 236 235 221
201 176 181 186 190 187 189 186 182 198 192 205 208 206 212 218 225 225 234 197 205 219 240 256 265 276 304 294 270 130 184 173 285 22 32 10 298 284 294 336 300 268 236
154 161 159 185 178 184 192 185 190 192 194 210 220 205 214 224 209 225 234 237 260 315 330 339 327 321 88 69 44 13 234 226 270 318 191 218 248 199 206 107 78 321 257
127 125 164 162 178 183 199 176 169 164 171 192 197 304 248 243 354 284 279 329 353 15 42 18 28 32 49 29 236 276 252 248 265 237 203 227 271 279 265 282 270 215 301
90 88 90 95 152 162 150 121 134 79 42 39 42 54 86 108 50 13 52 31 45 68 50 34 49 25 62 21 291 278 298 288 277 215 232 221 220 216 246 248 301 335 356
82 90 79 83 54 100 121 118 65 67 65 58 59 60 65 61 66 74 47 39 42 36 61 44 25 29 19 355 5 315 297 292 309 316 309 290 245 247 260 205 10 331 306
97 98 100 91 75 70 96 107 88 98 79 82 76 73 68 67 70 70 69 57 29 27 39 42 51 24 8 4 33 287 337 327 349 286 262 273 261 267 271 298 44 23 306
110 107 100 103 95 75 84 102 97 94 77 66 53 62 55 84 60 75 60 33 54 41 20 16 31 44 354 308 348 168 327 276 331 322 274 265 276 229 226 218 240 15 23
120 103 98 94 87 88 79 88 108 115 114 91 94 89 63 45 80 74 64 59 50 35 41 26 21 16 324 7 310 259 256 268 300 314 312 286 293 243 210 209 328 269 64
103 91 81 85 78 78 86 104 112 110 114 108 108 90 74 52 60 60 56 52 49 39 33 32 18 20 18 14 339 314 276 263 255 271 299 308 286 257 272 6 279 261 130
113 108 101 95 85 85 92 86 95 101 106 114 112 100 83 65 54 54 56 55 49 44 33 22 13 22 20 15 346 344 329 319 311 292 283 292 266 288 264 194 283 297 290